• In Hungary
  • List of Countries
  • For 7 days
  • Water Temperature
  • Satellite Maps
  • Weather Map
  • News
  • Weather Widgets
  • user-avatar
    Login

    Hourly Weather Potochany

    Today, 19 November, Sunday

    Time Temperature Precipitation Wind Pressure Humidity
    00:00 +1°C° 0 mm 2 mps 726 mmHg 94%
    01:00 -1°C° 0 mm 2 mps 725 mmHg 94%
    02:00 +2°C° 0 mm 1 mps 724 mmHg 94%
    03:00 +3°C° 0.2 mm 1 mps 724 mmHg 94%
    04:00 +3°C° 0.2 mm 1 mps 724 mmHg 94%
    05:00 +3°C° 0.2 mm 1 mps 724 mmHg 93%
    06:00 +1°C° 0.1 mm 2 mps 724 mmHg 92%
    07:00 +1°C° 0.1 mm 2 mps 723 mmHg 91%
    08:00 +1°C° 0 mm 2 mps 723 mmHg 90%
    09:00 +1°C° 0 mm 3 mps 723 mmHg 85%
    10:00 +1°C° 0 mm 3 mps 724 mmHg 80%
    11:00 +1°C° 0 mm 4 mps 724 mmHg 75%
    12:00 +1°C° 0 mm 4 mps 724 mmHg 72%
    13:00 +3°C° 0 mm 4 mps 724 mmHg 69%
    14:00 +3°C° 0 mm 4 mps 723 mmHg 67%
    15:00 +2°C° 0 mm 3 mps 723 mmHg 71%
    16:00 +2°C° 0 mm 2 mps 723 mmHg 75%
    17:00 +2°C° 0 mm 1 mps 723 mmHg 78%
    18:00 +1°C° 0 mm 2 mps 723 mmHg 80%
    19:00 +1°C° 0 mm 2 mps 723 mmHg 81%
    20:00 +1°C° 0 mm 2 mps 723 mmHg 82%
    21:00 -1°C° 0 mm 2 mps 723 mmHg 83%
    22:00 -1°C° 0 mm 2 mps 723 mmHg 83%
    23:00 -1°C° 0 mm 2 mps 723 mmHg 84%

    Tomorrow, 20 November, Monday

    Time Temperature Precipitation Wind Pressure Humidity
    00:00 -1°C° 0 mm 2 mps 723 mmHg 85%
    01:00 -1°C° 0 mm 2 mps 723 mmHg 85%
    02:00 -1°C° 0 mm 2 mps 723 mmHg 85%
    03:00 -1°C° 0 mm 2 mps 723 mmHg 85%
    04:00 -1°C° 0 mm 2 mps 723 mmHg 86%
    05:00 -1°C° 0 mm 2 mps 723 mmHg 86%
    06:00 -1°C° 0.1 mm 3 mps 723 mmHg 84%
    07:00 -1°C° 0.1 mm 3 mps 723 mmHg 83%
    08:00 -2°C° 0.1 mm 4 mps 723 mmHg 82%
    09:00 -1°C° 0.1 mm 4 mps 723 mmHg 78%
    10:00 0°C° 0.1 mm 5 mps 723 mmHg 75%
    11:00 +1°C° 0.1 mm 6 mps 724 mmHg 71%
    12:00 +1°C° 0 mm 6 mps 724 mmHg 71%
    13:00 0°C° 0 mm 7 mps 724 mmHg 71%
    14:00 0°C° 0 mm 7 mps 724 mmHg 71%
    15:00 -1°C° 0 mm 7 mps 724 mmHg 74%
    16:00 -1°C° 0 mm 6 mps 725 mmHg 76%
    17:00 -2°C° 0 mm 6 mps 725 mmHg 79%
    18:00 -1°C° 0 mm 5 mps 725 mmHg 80%
    19:00 -2°C° 0 mm 5 mps 725 mmHg 80%
    20:00 -2°C° 0 mm 5 mps 726 mmHg 81%
    21:00 -3°C° 0 mm 4 mps 726 mmHg 80%
    22:00 -3°C° 0 mm 4 mps 726 mmHg 80%
    23:00 -3°C° 0 mm 4 mps 726 mmHg 79%

    Day after tomorrow, 21 November, Tuesday

    Time Temperature Precipitation Wind Pressure Humidity
    00:00 -2°C° 0.1 mm 3 mps 726 mmHg 82%
    01:00 -2°C° 0.1 mm 3 mps 726 mmHg 84%
    02:00 -2°C° 0.1 mm 3 mps 726 mmHg 87%
    03:00 -2°C° 0.1 mm 3 mps 725 mmHg 88%
    04:00 -1°C° 0.1 mm 3 mps 725 mmHg 89%
    05:00 -1°C° 0.1 mm 3 mps 725 mmHg 90%
    06:00 -1°C° 0.1 mm 3 mps 725 mmHg 89%
    07:00 -1°C° 0.1 mm 3 mps 725 mmHg 89%
    08:00 -1°C° 0.1 mm 3 mps 725 mmHg 88%
    09:00 +1°C° 0 mm 2 mps 725 mmHg 85%
    10:00 +1°C° 0 mm 2 mps 725 mmHg 82%
    11:00 +2°C° 0 mm 2 mps 725 mmHg 79%
    12:00 +2°C° 0.1 mm 2 mps 724 mmHg 78%
    13:00 +2°C° 0.1 mm 2 mps 724 mmHg 77%
    14:00 +3°C° 0.1 mm 1 mps 724 mmHg 77%
    15:00 +3°C° 0.1 mm 1 mps 724 mmHg 80%
    16:00 +2°C° 0.1 mm 1 mps 724 mmHg 84%
    17:00 +2°C° 0.1 mm 1 mps 724 mmHg 87%
    18:00 +2°C° 0.1 mm 1 mps 724 mmHg 88%
    19:00 +2°C° 0.1 mm 1 mps 724 mmHg 89%
    20:00 +2°C° 0.1 mm 1 mps 725 mmHg 90%
    21:00 +2°C° 0.2 mm 1 mps 725 mmHg 90%
    22:00 +2°C° 0.2 mm 1 mps 725 mmHg 91%
    23:00 +2°C° 0.2 mm 1 mps 725 mmHg 91%

    22 November, Wednesday

    Time Temperature Precipitation Wind Pressure Humidity
    00:00 +1°C° 0.2 mm 1 mps 726 mmHg 91%
    01:00 -1°C° 0.2 mm 2 mps 726 mmHg 92%
    02:00 -1°C° 0.2 mm 2 mps 726 mmHg 93%
    03:00 -2°C° 0 mm 2 mps 727 mmHg 92%
    04:00 -2°C° 0 mm 2 mps 727 mmHg 92%
    05:00 -3°C° 0 mm 2 mps 727 mmHg 92%
    06:00 -3°C° 0 mm 2 mps 728 mmHg 92%
    07:00 -1°C° 0 mm 1 mps 729 mmHg 92%
    08:00 -2°C° 0 mm 1 mps 729 mmHg 91%
    09:00 -1°C° 0 mm 1 mps 730 mmHg 87%
    10:00 0°C° 0 mm 1 mps 730 mmHg 83%
    11:00 +1°C° 0 mm 1 mps 731 mmHg 79%
    12:00 +1°C° 0 mm 1 mps 731 mmHg 77%
    13:00 +2°C° 0 mm 1 mps 731 mmHg 75%
    14:00 +2°C° 0 mm 1 mps 730 mmHg 73%
    15:00 +2°C° 0 mm 1 mps 730 mmHg 76%
    16:00 +1°C° 0 mm 1 mps 730 mmHg 79%
    17:00 -1°C° 0 mm 2 mps 730 mmHg 82%
    18:00 -1°C° 0 mm 2 mps 731 mmHg 81%
    19:00 -1°C° 0 mm 3 mps 731 mmHg 79%
    20:00 -1°C° 0 mm 3 mps 731 mmHg 78%
    21:00 -1°C° 0 mm 3 mps 731 mmHg 78%
    22:00 -1°C° 0 mm 3 mps 731 mmHg 77%
    23:00 -1°C° 0 mm 3 mps 731 mmHg 77%

    23 November, Thursday

    Time Temperature Precipitation Wind Pressure Humidity
    00:00 -1°C° 0 mm 3 mps 731 mmHg 77%
    01:00 -1°C° 0 mm 3 mps 731 mmHg 78%
    02:00 -1°C° 0 mm 3 mps 731 mmHg 78%
    03:00 -1°C° 0 mm 3 mps 731 mmHg 79%
    04:00 -1°C° 0 mm 3 mps 731 mmHg 80%
    05:00 0°C° 0 mm 3 mps 732 mmHg 81%
    06:00 0°C° 0 mm 3 mps 732 mmHg 81%
    07:00 0°C° 0 mm 3 mps 732 mmHg 82%
    08:00 +1°C° 0 mm 2 mps 732 mmHg 83%
    09:00 +1°C° 0 mm 3 mps 732 mmHg 82%
    10:00 +1°C° 0 mm 3 mps 733 mmHg 80%
    11:00 +2°C° 0 mm 3 mps 733 mmHg 79%
    12:00 +3°C° 0 mm 3 mps 733 mmHg 79%
    13:00 +5°C° 0 mm 2 mps 732 mmHg 79%
    14:00 +5°C° 0 mm 2 mps 732 mmHg 78%
    15:00 +5°C° 0 mm 2 mps 732 mmHg 81%
    16:00 +4°C° 0 mm 2 mps 732 mmHg 84%
    17:00 +3°C° 0 mm 2 mps 732 mmHg 87%
    18:00 +3°C° 0 mm 2 mps 732 mmHg 88%
    19:00 +3°C° 0 mm 2 mps 732 mmHg 88%
    20:00 +3°C° 0 mm 2 mps 732 mmHg 89%
    21:00 +1°C° 0 mm 3 mps 732 mmHg 88%
    22:00 +1°C° 0 mm 3 mps 732 mmHg 87%
    23:00 +1°C° 0 mm 3 mps 732 mmHg 87%

    24 November, Friday

    Time Temperature Precipitation Wind Pressure Humidity
    00:00 +2°C° 0 mm 3 mps 732 mmHg 86%
    01:00 +2°C° 0 mm 3 mps 732 mmHg 85%
    02:00 +3°C° 0 mm 3 mps 732 mmHg 84%
    03:00 +2°C° 0 mm 3 mps 732 mmHg 85%
    04:00 +2°C° 0 mm 3 mps 732 mmHg 87%
    05:00 +2°C° 0 mm 3 mps 732 mmHg 88%
    06:00 +2°C° 0 mm 3 mps 732 mmHg 88%
    07:00 +2°C° 0 mm 3 mps 733 mmHg 89%
    08:00 +2°C° 0 mm 3 mps 733 mmHg 90%
    09:00 +3°C° 0 mm 3 mps 733 mmHg 87%
    10:00 +4°C° 0 mm 3 mps 733 mmHg 84%
    11:00 +5°C° 0 mm 3 mps 734 mmHg 81%
    12:00 +5°C° 0 mm 3 mps 733 mmHg 80%
    13:00 +7°C° 0 mm 3 mps 733 mmHg 79%
    14:00 +8°C° 0 mm 3 mps 733 mmHg 78%
    15:00 +7°C° 0 mm 2 mps 733 mmHg 81%
    16:00 +6°C° 0 mm 2 mps 733 mmHg 85%
    17:00 +5°C° 0 mm 2 mps 733 mmHg 89%
    18:00 +6°C° 0 mm 1 mps 734 mmHg 89%
    19:00 +6°C° 0 mm 1 mps 734 mmHg 89%
    20:00 +5°C° 0 mm 1 mps 734 mmHg 89%
    21:00 +5°C° 0 mm 1 mps 734 mmHg 89%
    22:00 +5°C° 0 mm 1 mps 734 mmHg 88%
    23:00 +5°C° 0 mm 1 mps 735 mmHg 88%
    Show more